Weather History for FBSK - October, 2013

Change the Weather History Date:

Tuesday, October 8, 2013

  Actual Average Record
Temperature  
Mean Temperature 74 °F -  
Max Temperature 89 °F 85 °F 95 °F (2014)
Min Temperature 60 °F 61 °F 50 °F (2011)
Cooling Degree Days 10    
Growing Degree Days 24 (Base 50)    
Moisture  
Dew Point 49 °F    
Average Humidity 44    
Maximum Humidity 77    
Minimum Humidity 16    
Precipitation  
Precipitation 0.00 in - - ()
Sea Level Pressure  
Sea Level Pressure 30.14 in    
Wind  
Wind Speed 8 mph ()    
Max Wind Speed 14 mph    
Max Gust Speed -    
Visibility 6.2 miles    
Events      
Averages and records for this station are not official NWS values.
T = Trace of Precipitation, MM = Missing Value Source: Averaged Metar Reports

Daily Weather History Graph

Daily Weather History Graph

Search for Another Location

Airport or City:

Trip Planner

Search our weather history database for the weather conditions in past years. The results will help you decide how hot, cold, wet, or windy it might be!

Date:

Astronomy

Oct. 08, 2013 Rise Set
Actual Time 5:49 AM CAT 6:18 PM CAT
Civil Twilight 5:26 AM CAT 6:41 PM CAT
Nautical Twilight 4:59 AM CAT 7:08 PM CAT
Astronomical Twilight 4:32 AM CAT 7:35 PM CAT
Moon 8:13 AM CAT (10/8) 9:52 PM CAT (10/8)
Length of Visible Light 13h 15m
Length of Day
12h 29m
Waxing Crescent, 14% of the Moon is Illuminated
Oct 8
Waxing Crescent
Oct 12
First Quarter
Oct 19
Full
Oct 27
Last Quarter
Nov 3
New

Hourly Weather History & Observations

Time (CAT) Temp. Dew Point Humidity Pressure Visibility Wind Dir Wind Speed Gust Speed Precip Events Conditions
2:00 AM 64.4 °F 55.4 °F 73% 30.18 in - ESE 9.2 mph - N/A   Clear
3:00 AM 64.4 °F 55.4 °F 73% 30.18 in - East 11.5 mph - N/A   Clear
4:00 AM 62.6 °F 53.6 °F 72% 30.21 in - East 11.5 mph - N/A   Clear
5:00 AM 60.8 °F 53.6 °F 77% 30.21 in - East 10.4 mph - N/A   Clear
6:00 AM 60.8 °F 53.6 °F 77% 30.24 in - ESE 8.1 mph - N/A   Clear
7:00 AM 62.6 °F 53.6 °F 72% 30.24 in - East 10.4 mph - N/A   Clear
8:00 AM 66.2 °F 51.8 °F 60% 30.24 in - NE 12.7 mph - N/A   Clear
9:00 AM 69.8 °F 53.6 °F 56% 30.24 in - NE 13.8 mph - N/A   Clear
10:00 AM 71.6 °F 53.6 °F 53% 30.21 in - NE 11.5 mph - N/A   Clear
11:00 AM 77.0 °F 51.8 °F 41% 30.21 in - NE 10.4 mph - N/A   Clear
12:00 PM 80.6 °F 50.0 °F 34% 30.18 in - NE 8.1 mph - N/A   Clear
1:00 PM 84.2 °F 48.2 °F 29% 30.15 in - WNW 4.6 mph - N/A   Clear
2:00 PM 87.8 °F 48.2 °F 25% 30.09 in 6.2 mi Variable 4.6 mph - N/A   Partly Cloudy
3:00 PM 87.8 °F 44.6 °F 22% 30.06 in 6.2 mi Variable 5.8 mph - N/A   Partly Cloudy
4:00 PM 89.6 °F 39.2 °F 17% 30.06 in 6.2 mi Variable 4.6 mph - N/A   Partly Cloudy
5:00 PM 89.6 °F 37.4 °F 16% 30.04 in 6.2 mi SE 6.9 mph - N/A   Partly Cloudy
6:00 PM 87.8 °F 41.0 °F 19% 30.04 in 6.2 mi East 6.9 mph - N/A   Partly Cloudy
7:00 PM 82.4 °F 46.4 °F 28% 30.06 in 6.2 mi ENE 8.1 mph - N/A   Partly Cloudy
8:00 PM 78.8 °F 44.6 °F 30% 30.06 in - ENE 8.1 mph - N/A   Clear
9:00 PM 75.2 °F 44.6 °F 34% 30.06 in - ENE 6.9 mph - N/A   Clear
10:00 PM 78.8 °F 46.4 °F 32% 30.09 in - NE 10.4 mph - N/A   Clear
11:00 PM 77.0 °F 48.2 °F 36% 30.09 in - NE 12.7 mph - N/A   Clear